Regional Weather Roundup
Issued by NWS Newport/Morehead, NC

Current Version | Previous Version | Graphics & Text | Print | Product List | Glossary On
Versions: 1 2 3 4 5 6 7 8 9 10 11 12 13 14 15 16 17 18 19 20 21 22 23 24 25 26 27 28 29 30 31 32 33 34 35 36 37 38 39 40 41 42 43 44 45 46 47 48 49 50
198 ASUS42 KMHX 191325 RWRMHX WEATHER ROUNDUP FOR EASTERN NORTH CAROLINA NATIONAL WEATHER SERVICE NEWPORT/MOREHEAD CITY NC 900 AM EDT SAT AUG 19 2017 NOTE: "FAIR" INDICATES FEW OR NO CLOUDS BELOW 12,000 FEET WITH NO SIGNIFICANT WEATHER AND/OR OBSTRUCTIONS TO VISIBILITY NCZ015>017-031-032-045>047-102-103-191400- NORTH COAST CITY SKY/WX TMP DP RH WIND PRES REMARKS EDENTON MOSUNNY 84 77 80 CALM 29.93R ELIZABETH CITY PTSUNNY 83 79 88 W7 29.91S KITTY HAWK CLOUDY 81 76 85 CALM 29.91R MANTEO CLOUDY 82 78 87 W6 29.92R $$ NCZ045>047-081-094-103-104-191400- CENTRAL COAST CITY SKY/WX TMP DP RH WIND PRES REMARKS FRISCO PTSUNNY 84 80 88 SW10G16 29.93S $$ NCZ095-097-098-100-101-191400- SOUTHERN COAST CITY SKY/WX TMP DP RH WIND PRES REMARKS BEAUFORT PTSUNNY 85 82 91 W15 29.94R HX 102 CEDAR ISLAND NOT AVBL JACKSONVILLE SUNNY 84 80 88 SW8 29.93S PINEY ISLAND PTSUNNY N/A N/A N/A W14 29.93R WILMINGTON SUNNY 86 78 77 SW12 29.93S $$ NCZ011>013-027>030-043-044-078>080-089-090>093-098-191400- COASTAL PLAIN CITY SKY/WX TMP DP RH WIND PRES REMARKS AHOSKIE N/A 79 74 85 CALM 29.93R CLINTON PTSUNNY 81 79 92 NW3 29.94F ELIZABETHTOWN NOT AVBL GOLDSBORO MOSUNNY 81 79 94 W7 29.93R GREENVILLE SUNNY 82 73 74 W3 29.95R HAVELOCK PTSUNNY 85 78 80 SW13 29.95R KENANSVILLE PTSUNNY 82 77 83 W3 29.94S KINSTON NOT AVBL NEW BERN CLOUDY 82 79 90 W9 29.95R RICHLANDS CLOUDY 83 79 88 W5 29.94S ROCKY MOUNT SUNNY 80 74 81 NW8 29.93S WASHINGTON PTSUNNY 82 77 84 W3 29.93S WHITEVILLE SUNNY 84 78 82 SW3 29.94R $$ AMZ130-135-150-152-154-156-158-170-250-252-270-ANZ085-086-088-633-658-670-191400- MARINE OBSERVATIONS STATION/POSITION TIME TEMP WIND PRES WAVE SWELL AIR SEA DIR/SP/G HT/PER HT/PER (UTC) (F) (DEG/KT/KT) (MB) (FT/S) (FT/S) CHESAPEAKE LIGHT NOT AVBL 64 E VA BEACH 1250 78 77 250/ 4/ 4 1013.0 4/ 6 3/ 6 DUCK 1300 81 69 260/ 9/ 12 1012.6 2 E DUCK 1300 76 N/A 2/ 9 OREGON INLET 1300 82 83 230/ 10/ 12 1012.8 13E OREGON INLT 1248 78 N/A 3/ 6 2/ 6 HATTERAS CG 1300 81 83 240/ 8/ 10 1013.5 DIAMOND BUOY 1250 84 84 240/ 16/ 19 1013.3 5/ 6 2/10 CAPE LOOKOUT 1300 85 240/ 12/ 15 1013.6 BEAUFORT LAB 1300 84 81 250/ 5/ 11 1013.4 30 SE NEW RVR IN 1308 83 83 240/ 14/ 17 1014.0 30 SE NEW RVR IN 1313 83 N/A 4/ 6 27 SE WRIGHTSVLE 1308 84 83 230/ 12/ 16 1014.0 5 SE WRIGHTSVLE 1308 84 83 240/ 12/ 16 1013.7 225 S CAPE HAT 1250 83 84 220/ 12/ 14 1016.4 4/ 6 2/ 8 41 SE CHARLESTON 1310 83 84 210/ 12/ 14 1013.9 $$

USA.gov is the U.S. government's official web portal to all federal, state and local government web resources and services.